Weather History for Payson, AZ

Change the Weather History Date:

Monday, April 28, 2014

  Actual Average Record
Temperature  
Mean Temperature 53 °F -  
Max Temperature 69 °F 73 °F 80 °F (2013)
Min Temperature 37 °F 37 °F 37 °F (2014)
Degree Days  
Heating Degree Days 12    
Growing Degree Days 3 (Base 50)    
Moisture  
Dew Point 21 °F    
Average Humidity 30    
Maximum Humidity 65    
Minimum Humidity 13    
Precipitation  
Precipitation 0.00 in - - ()
Sea Level Pressure  
Sea Level Pressure 30.05 in    
Wind  
Wind Speed 6 mph (NW)    
Max Wind Speed 18 mph    
Max Gust Speed 30 mph    
Visibility 10 miles    
Events Thunderstorm    
Averages and records for this station are not official NWS values.
T = Trace of Precipitation, MM = Missing Value Source: NWS Daily Summary

Daily Weather History Graph

Daily Weather History Graph

Search for Another Location

Airport:

Trip Planner

Search our weather history database for the weather conditions in past years. The results will help you decide how hot, cold, wet, or windy it might be!

Date:

Astronomy

Apr. 28, 2014 Rise Set
Actual Time 5:38 AM MST 7:07 PM MST
Civil Twilight 5:12 AM MST 7:33 PM MST
Nautical Twilight 4:40 AM MST 8:05 PM MST
Astronomical Twilight 4:07 AM MST 8:39 PM MST
Moon 5:16 AM MST (4/28) 6:50 PM MST (4/28)
Length of Visible Light 14h 21m
Length of Day
13h 28m
Waning Crescent, 0% of the Moon is Illuminated
Apr 28
Waning Crescent
Apr 28
New
May 6
First Quarter
May 14
Full
May 21
Last Quarter

Hourly Weather History & Observations

Time (MST) Temp. Windchill Dew Point Humidity Pressure Visibility Wind Dir Wind Speed Gust Speed Precip Events Conditions
12:15 AM 42.8 °F - 26.6 °F 53% 30.01 in 10.0 mi Calm Calm - N/A   Clear
12:35 AM 42.8 °F - 28.4 °F 57% 30.01 in 10.0 mi Calm Calm - N/A   Clear
1:15 AM 42.8 °F - 26.6 °F 53% 30.01 in 10.0 mi Calm Calm - N/A   Clear
1:35 AM 42.8 °F 41.1 °F 26.6 °F 53% 30.00 in 10.0 mi NNW 3.5 mph - N/A   Clear
1:55 AM 42.8 °F - 26.6 °F 53% 30.00 in 10.0 mi Calm Calm - N/A   Clear
2:15 AM 41.0 °F - 28.4 °F 61% 30.00 in 10.0 mi Calm Calm - N/A Thunderstorm Clear
2:35 AM 41.0 °F - 28.4 °F 61% 29.99 in 10.0 mi Calm Calm - N/A   Clear
2:55 AM 41.0 °F - 26.6 °F 57% 30.00 in 10.0 mi Calm Calm - N/A   Clear
3:15 AM 39.2 °F - 26.6 °F 61% 30.00 in 10.0 mi Calm Calm - N/A   Clear
3:35 AM 41.0 °F - 26.6 °F 57% 30.00 in 10.0 mi Calm Calm - N/A   Clear
3:55 AM 41.0 °F - 26.6 °F 57% 30.00 in 10.0 mi Calm Calm - N/A   Clear
4:15 AM 39.2 °F - 26.6 °F 61% 30.00 in 10.0 mi Calm Calm - N/A   Clear
4:35 AM 39.2 °F - 26.6 °F 61% 30.00 in 10.0 mi Calm Calm - N/A   Clear
5:55 AM 37.4 °F - 26.6 °F 65% 30.02 in 10.0 mi Calm Calm - N/A   Clear
6:15 AM 39.2 °F 37.0 °F 26.6 °F 61% 30.03 in 10.0 mi North 3.5 mph - N/A   Clear
6:35 AM 39.2 °F 35.9 °F 28.4 °F 65% 30.04 in 10.0 mi North 4.6 mph - N/A   Clear
6:55 AM 42.8 °F - 28.4 °F 57% 30.05 in 10.0 mi Calm Calm - N/A   Clear
7:15 AM 46.4 °F - 28.4 °F 50% 30.05 in 10.0 mi Calm Calm - N/A   Clear
7:55 AM 53.6 °F - 28.4 °F 38% 30.06 in 10.0 mi Calm Calm - N/A   Clear
8:15 AM 53.6 °F - 24.8 °F 33% 30.06 in 10.0 mi Calm Calm - N/A   Clear
8:35 AM 55.4 °F - 26.6 °F 33% 30.07 in 10.0 mi Variable 3.5 mph - N/A   Clear
8:55 AM 57.2 °F - 24.8 °F 29% 30.07 in 10.0 mi Variable 4.6 mph - N/A   Clear
9:15 AM 57.2 °F - 26.6 °F 31% 30.07 in 10.0 mi WSW 8.1 mph - N/A   Clear
9:35 AM 59.0 °F - 26.6 °F 29% 30.07 in 10.0 mi West 9.2 mph - N/A   Clear
9:55 AM 59.0 °F - 26.6 °F 29% 30.07 in 10.0 mi Variable 6.9 mph 15.0 mph N/A   Clear
10:15 AM 60.8 °F - 26.6 °F 27% 30.07 in 10.0 mi West 10.4 mph - N/A   Clear
10:35 AM 60.8 °F - 26.6 °F 27% 30.07 in 10.0 mi West 9.2 mph 16.1 mph N/A   Clear
10:55 AM 60.8 °F - 24.8 °F 25% 30.07 in 10.0 mi West 10.4 mph 17.3 mph N/A   Clear
11:15 AM 62.6 °F - 24.8 °F 24% 30.07 in 10.0 mi WNW 15.0 mph - N/A   Clear
11:35 AM 64.4 °F - 23.0 °F 21% 30.06 in 10.0 mi NW 13.8 mph 19.6 mph N/A   Clear
11:55 AM 64.4 °F - 21.2 °F 19% 30.06 in 10.0 mi NW 13.8 mph 21.9 mph N/A   Clear
12:15 PM 64.4 °F - 23.0 °F 21% 30.05 in 10.0 mi NW 13.8 mph 25.3 mph N/A   Clear
12:55 PM 66.2 °F - 21.2 °F 18% 30.05 in 10.0 mi West 16.1 mph 26.5 mph N/A   Clear
1:15 PM 66.2 °F - 21.2 °F 18% 30.04 in 10.0 mi West 16.1 mph 24.2 mph N/A   Clear
1:35 PM 66.2 °F - 23.0 °F 19% 30.04 in 10.0 mi WNW 18.4 mph 25.3 mph N/A   Clear
2:15 PM 68.0 °F - 23.0 °F 18% 30.03 in 10.0 mi West 16.1 mph - N/A   Clear
2:35 PM 68.0 °F - 23.0 °F 18% 30.02 in 10.0 mi WNW 17.3 mph 29.9 mph N/A   Clear
2:55 PM 68.0 °F - 23.0 °F 18% 30.02 in 10.0 mi NW 17.3 mph 26.5 mph N/A   Clear
3:15 PM 68.0 °F - 21.2 °F 17% 30.01 in 10.0 mi NW 12.7 mph 26.5 mph N/A   Clear
3:35 PM 68.0 °F - 21.2 °F 17% 30.01 in 10.0 mi WNW 13.8 mph 29.9 mph N/A   Clear
3:55 PM 69.8 °F - 19.4 °F 15% 30.01 in 10.0 mi NW 16.1 mph 23.0 mph N/A   Clear
4:15 PM 69.8 °F - 19.4 °F 15% 30.01 in 10.0 mi NW 15.0 mph 28.8 mph N/A   Clear
4:35 PM 68.0 °F - 17.6 °F 15% 30.01 in 10.0 mi NW 13.8 mph 27.6 mph N/A   Clear
4:55 PM 68.0 °F - 17.6 °F 15% 30.01 in 10.0 mi NW 13.8 mph 24.2 mph N/A   Clear
5:15 PM 68.0 °F - 15.8 °F 13% 30.02 in 10.0 mi NW 15.0 mph 24.2 mph N/A   Clear
5:35 PM 68.0 °F - 15.8 °F 13% 30.02 in 10.0 mi NW 17.3 mph 24.2 mph N/A   Clear
5:55 PM 66.2 °F - 15.8 °F 14% 30.02 in 10.0 mi NW 12.7 mph 21.9 mph N/A   Clear
6:15 PM 66.2 °F - 14.0 °F 13% 30.02 in 10.0 mi NNW 16.1 mph 24.2 mph N/A   Clear
6:35 PM 64.4 °F - 12.2 °F 13% 30.02 in 10.0 mi NW 10.4 mph 17.3 mph N/A   Clear
6:55 PM 64.4 °F - 12.2 °F 13% 30.03 in 10.0 mi NW 10.4 mph 17.3 mph N/A   Clear
7:15 PM 62.6 °F - 14.0 °F 15% 30.03 in 10.0 mi NNW 5.8 mph 12.7 mph N/A   Clear
7:35 PM 60.8 °F - 14.0 °F 16% 30.04 in 10.0 mi Variable 3.5 mph - N/A   Clear
7:55 PM 60.8 °F - 14.0 °F 16% 30.05 in 10.0 mi NNW 10.4 mph - N/A   Clear
8:15 PM 60.8 °F - 14.0 °F 16% 30.06 in 10.0 mi North 8.1 mph 13.8 mph N/A   Clear
8:35 PM 59.0 °F - 14.0 °F 17% 30.07 in 10.0 mi North 11.5 mph - N/A   Clear
8:55 PM 59.0 °F - 15.8 °F 19% 30.09 in 10.0 mi NNE 16.1 mph 24.2 mph N/A   Clear
9:15 PM 57.2 °F - 15.8 °F 20% 30.11 in 10.0 mi NNE 12.7 mph - N/A   Clear
9:35 PM 57.2 °F - 10.4 °F 16% 30.11 in 10.0 mi NNE 15.0 mph 25.3 mph N/A   Clear
9:55 PM 55.4 °F - 5.0 °F 13% 30.12 in 10.0 mi NNE 15.0 mph 28.8 mph N/A   Clear
10:35 PM 53.6 °F - 5.0 °F 14% 30.14 in 10.0 mi North 12.7 mph - N/A   Clear
10:55 PM 53.6 °F - 5.0 °F 14% 30.14 in 10.0 mi North 18.4 mph 26.5 mph N/A   Clear
11:15 PM 53.6 °F - 5.0 °F 14% 30.15 in 10.0 mi NNE 15.0 mph 21.9 mph N/A   Clear
11:35 PM 51.8 °F - 5.0 °F 15% 30.16 in 10.0 mi NNE 12.7 mph 23.0 mph N/A   Clear
11:55 PM 51.8 °F - 6.8 °F 16% 30.16 in 10.0 mi NNE 15.0 mph 25.3 mph N/A   Clear